TimeEST,TemperatureF,Dew PointF,Humidity,Sea Level PressureIn,VisibilityMPH,Wind Direction,Wind SpeedMPH,Gust SpeedMPH,PrecipitationIn,Events,Conditions,WindDirDegrees,DateUTC
12:17 AM,17.6,6.8,63,30.02,7.0,SSW,15.0,-,0.00,Snow,Light Snow,210,2013-01-19 05:17:00
12:32 AM,17.6,8.6,68,30.01,2.5,SSW,13.8,-,0.00,Snow,Light Snow,210,2013-01-19 05:32:00
12:44 AM,15.8,10.4,79,30.00,1.8,SSW,11.5,-,0.00,Snow,Light Snow,210,2013-01-19 05:44:00
12:51 AM,17.1,10.0,74,30.10,2.0,SSW,13.8,-,0.00,Snow,Light Snow,210,2013-01-19 05:51:00
1:06 AM,17.6,10.4,73,29.99,3.0,SSW,13.8,-,0.00,Snow,Light Snow,210,2013-01-19 06:06:00
1:16 AM,17.6,12.2,79,29.99,2.0,SSW,16.1,-,0.00,Snow,Light Snow,210,2013-01-19 06:16:00
1:24 AM,17.6,12.2,79,29.99,1.2,SSW,15.0,-,0.00,Snow,Light Snow,210,2013-01-19 06:24:00
2:51 AM,18.0,15.1,88,30.04,1.0,SSW,16.1,21.9,0.00,Snow,Light Snow,210,2013-01-19 07:51:00
2:55 AM,17.6,15.8,93,29.95,0.8,SW,16.1,21.9,0.00,Snow,Light Snow,220,2013-01-19 07:55:00
3:44 AM,19.4,15.8,86,29.92,1.0,SW,12.7,-,0.00,Snow,Light Snow,220,2013-01-19 08:44:00
3:51 AM,19.9,17.1,89,30.01,1.2,SW,12.7,-,0.00,Snow,Light Snow,220,2013-01-19 08:51:00
4:02 AM,19.4,17.6,93,29.91,1.2,SW,13.8,-,0.00,Snow,Light Snow,220,2013-01-19 09:02:00
4:25 AM,19.4,17.6,93,29.90,2.5,SW,15.0,-,0.00,Snow,Light Snow,220,2013-01-19 09:25:00
4:41 AM,21.2,17.6,86,29.90,1.5,SW,12.7,-,0.00,Snow,Light Snow,220,2013-01-19 09:41:00
4:51 AM,21.0,17.1,85,29.99,1.2,SSW,13.8,-,0.00,Snow,Light Snow,210,2013-01-19 09:51:00
5:09 AM,21.2,17.6,86,29.89,2.5,SW,11.5,-,0.00,Snow,Light Snow,230,2013-01-19 10:09:00
5:18 AM,21.2,17.6,86,29.89,3.0,SW,11.5,-,0.00,Snow,Light Snow,220,2013-01-19 10:18:00
5:51 AM,21.9,18.0,85,29.98,2.0,SW,11.5,-,0.00,Snow,Light Snow,220,2013-01-19 10:51:00
6:02 AM,21.2,17.6,86,29.88,1.8,SW,10.4,-,0.01,Snow,Light Snow,220,2013-01-19 11:02:00
6:15 AM,21.2,19.4,93,29.88,1.5,SW,11.5,-,0.01,Snow,Light Snow,220,2013-01-19 11:15:00
6:51 AM,21.9,19.0,89,29.96,2.0,SW,10.4,-,0.01,Snow,Light Snow,220,2013-01-19 11:51:00
7:19 AM,23.0,19.4,86,29.86,3.0,SW,6.9,-,0.00,Snow,Light Snow,220,2013-01-19 12:19:00
7:51 AM,24.1,18.0,77,29.94,10.0,SW,5.8,-,0.00,,Overcast,220,2013-01-19 12:51:00
8:51 AM,26.1,18.0,71,29.94,10.0,SW,9.2,-,N/A,,Overcast,230,2013-01-19 13:51:00
9:51 AM,28.0,19.0,69,29.92,10.0,SW,11.5,-,N/A,,Overcast,220,2013-01-19 14:51:00
10:51 AM,30.0,19.0,64,29.91,10.0,SW,12.7,-,N/A,,Overcast,220,2013-01-19 15:51:00
11:51 AM,32.0,19.9,61,29.88,10.0,SW,17.3,25.3,N/A,,Overcast,230,2013-01-19 16:51:00
12:51 PM,33.1,19.9,59,29.87,10.0,SW,16.1,23.0,N/A,,Overcast,220,2013-01-19 17:51:00
1:51 PM,33.1,21.0,61,29.87,10.0,SW,11.5,20.7,N/A,,Overcast,220,2013-01-19 18:51:00
2:51 PM,34.0,21.0,59,29.88,10.0,SW,11.5,-,N/A,,Overcast,220,2013-01-19 19:51:00
3:51 PM,34.0,21.9,61,29.88,10.0,SW,11.5,-,N/A,,Overcast,230,2013-01-19 20:51:00
4:51 PM,34.0,23.0,64,29.86,10.0,SW,12.7,-,N/A,,Overcast,220,2013-01-19 21:51:00
5:51 PM,33.1,24.1,70,29.84,10.0,SSW,8.1,-,N/A,,Overcast,210,2013-01-19 22:51:00
6:51 PM,34.0,23.0,64,29.83,10.0,SW,6.9,-,N/A,,Overcast,220,2013-01-19 23:51:00
7:51 PM,33.1,21.9,64,29.80,10.0,SW,5.8,-,N/A,,Overcast,230,2013-01-20 00:51:00
8:51 PM,30.9,21.9,69,29.76,10.0,West,4.6,-,N/A,,Mostly Cloudy,270,2013-01-20 01:51:00
9:51 PM,36.0,21.9,57,29.72,10.0,SW,16.1,20.7,N/A,,Overcast,220,2013-01-20 02:51:00
10:51 PM,35.1,30.0,82,29.69,10.0,SSW,18.4,-,0.00,,Overcast,210,2013-01-20 03:51:00
11:51 PM,37.0,27.0,67,29.64,10.0,SSW,18.4,-,N/A,,Overcast,210,2013-01-20 04:51:00